Regional Weather Roundup
Issued by NWS

Home | Current Version | Previous Version | Text Only | Print | Product List | Glossary On
Versions: 1 2 3 4 5 6 7 8 9 10 11 12 13 14 15 16 17 18 19 20 21 22 23 24 25 26 27 28 29 30 31 32 33 34 35 36 37 38 39 40 41 42 43 44 45 46 47 48 49 50
000
ASUS43 KLOT 020008
RWRIL

ILLINOIS REGIONAL WEATHER ROUNDUP
NATIONAL WEATHER SERVICE CHICAGO/ROMEOVILLE IL
700 PM CDT WED APR 01 2020

NOTE: "FAIR" INDICATES FEW OR NO CLOUDS BELOW 12,000 FEET WITH NO
SIGNIFICANT WEATHER AND/OR OBSTRUCTIONS TO VISIBILITY.

* THESE STATIONS ARE NOT UNDER NWS QUALITY CONTROL. THEY ALSO MAY NOT
  REPORT WEATHER SUCH AS PRECIPITATION OR FOG.

ILZ001-002-007-009-015-016-024-020100-
NORTHWEST ILLINOIS

CITY           SKY/WX    TMP DP  RH WIND       PRES   REMARKS
MOLINE         FAIR      55  35  47 SE8       30.02S
6HR MIN TEMP:  52; 6HR MAX TEMP:  59;

STERLING*      MOCLDY    54  37  52 SE5       30.05S
SAVANNA*       FAIR      52  34  50 CALM      30.04S
$$

ILZ003-004-008-010-011-017-018-020100-
NORTH CENTRAL ILLINOIS

CITY           SKY/WX    TMP DP  RH WIND       PRES   REMARKS
ROCKFORD       MOCLDY    53  35  50 SE6       30.08R
6HR MIN TEMP:  53; 6HR MAX TEMP:  57;

FREEPORT*      MOCLDY    51  35  52 SE8       30.06S
ROCHELLE*      CLOUDY    52  38  60 E5        30.06S
DE KALB*       FAIR      50  36  59 E3        30.07S
PERU*          CLOUDY    56  34  43 E6        30.04R
$$

ILZ005-006-012>014-019>023-020100-
NORTHEAST ILLINOIS

CITY           SKY/WX    TMP DP  RH WIND       PRES   REMARKS
CHICAGO-OHARE  FAIR      47  35  63 E9        30.08R
6HR MIN TEMP:  47; 6HR MAX TEMP:  53;

CHICAGO-MIDWAY FAIR      45  36  70 E10       30.10R
6HR MIN TEMP:  45; 6HR MAX TEMP:  53;

SCHAUMBURG     NOT AVBL
AURORA         CLOUDY    52  36  54 E8        30.06R
6HR MIN TEMP:  49; 6HR MAX TEMP:  56;

LANSING*       FAIR      41  36  83 NE7       30.10S
JOLIET*        FAIR      51  38  62 E9        30.08S
WAUKEGAN       FAIR      41  34  76 E6        30.09R
6HR MIN TEMP:  41; 6HR MAX TEMP:  48;

DUPAGE AIRPORT FAIR      49  36  61 E10       30.07R
6HR MIN TEMP:  49; 6HR MAX TEMP:  56;

KANKAKEE*      FAIR      49  38  66 NE10      30.08R
WHEELING       FAIR      45  35  68 E6        30.11R
6HR MIN TEMP:  45; 6HR MAX TEMP:  50;

MORRIS*        FAIR      51  40  65 E7        30.06R
ROMEOVILLE*    FAIR      47  38  69 E8        30.08R
NORTHERLY ISL    N/A     36  35  96 NE6         N/A  WCI  31
$$

LMZ740>746-020100-
SOUTHERN LAKE MICHIGAN

STATION/POSITION SKY/WX   TEMP    WIND        PRES    VSBY  WAVE
                          AIR SEA DIR/SP/G                  HT/PER
                          (F)     (DEG/KT/KT) (MB)    (MI)  (FT/S)
HARRISON CRIB              35      50/  5/  5   N/A
NORTHERLY ISL              36      50/  5/  8   N/A
CALUMET HARBOR             35      20/  5/  7 1018.7F
MICHIGAN CITY              36     360/  5/  5   N/A
$$

ILZ025>027-034>036-040-047-049-050-058-095>099-020100-
WEST-CENTRAL ILLINOIS

CITY           SKY/WX    TMP DP  RH WIND       PRES   REMARKS
QUINCY         FAIR      56  39  53 SE9       30.01R
GALESBURG*     FAIR      55  31  40 SE6       30.04R
MACOMB*        FAIR      55  37  50 SE7       30.04S
JACKSONVILLE*  FAIR      53  38  56 E7        30.04F
PITTSFIELD*    FAIR      56  41  57 SE8       30.04R
$$

ILZ028>032-037-038-041>044-048-051>054-059>061-020100-
CENTRAL ILLINOIS

CITY           SKY/WX    TMP DP  RH WIND       PRES   REMARKS
PONTIAC        FAIR      53  35  50 E5        30.07R
BLOOMINGTON    FAIR      54  33  45 E3        30.06R
DECATUR        FAIR      53  35  50 E7        30.05S
PEORIA         FAIR      56  33  42 SE6       30.04S
6HR MIN TEMP:  51; 6HR MAX TEMP:  57;

LACON*         MOCLDY    54  35  47 E5        30.05R
LINCOLN*       FAIR      55  32  41 E6        30.05S
SPRINGFIELD    FAIR      54  37  52 SE6       30.05R
6HR MIN TEMP:  52; 6HR MAX TEMP:  58;

TAYLORVILLE    FAIR      53  36  52 SE6       30.05S
$$

ILZ033-039-045-046-055>057-062-063-020100-
EAST-CENTRAL ILLINOIS

CITY           SKY/WX    TMP DP  RH WIND       PRES   REMARKS
CHAMPAIGN      FAIR      52  35  52 E3        30.06R
DANVILLE*      FAIR      52  37  57 CALM      30.07R
RANTOUL*       FAIR      53  32  45 CALM      30.06R
MATTOON        FAIR      53  36  52 E5        30.05R
PARIS*         FAIR      55  37  51 CALM      30.07S
$$

ILZ079-100>102-020100-
SOUTHWEST ILLINOIS

CITY           SKY/WX    TMP DP  RH WIND       PRES   REMARKS
ALTON          CLEAR     54  41  62 SE7       30.06R
BELLEVILLE     FAIR      54  37  53 E3        30.05R
CAHOKIA*       FAIR      55  40  56 E6        30.05R
SPARTA*        FAIR      55  41  58 E3        30.06R
$$

ILZ064>066-069>071-074>076-080>082-084>086-088>090-092>094-020100-
SOUTH-CENTRAL ILLINOIS

CITY           SKY/WX    TMP DP  RH WIND       PRES   REMARKS
CARBONDALE     FAIR      56  36  47 NE3       30.05R
6HR MIN TEMP:  52; 6HR MAX TEMP:  59;

CAIRO*         FAIR      56  41  55 SW3       30.05R
EFFINGHAM*     FAIR      54  42  62 E3        30.07S HAZE
MARION         PTCLDY    55  37  50 NE5       30.05R
MT. VERNON     FAIR      54  36  50 E6        30.07R
CENTRALIA*     FAIR      56  37  49 E5        30.05R
SALEM*         FAIR      56  34  43 E3        30.06R
METROPOLIS*    FAIR      58  37  46 E3        30.05R
$$

ILZ067-068-072-073-078-083-087-091-020100-
SOUTHEAST ILLINOIS

CITY           SKY/WX    TMP DP  RH WIND       PRES   REMARKS
LAWRENCEVILLE  FAIR      55  35  47 CALM      30.07R
FLORA*         FAIR      54  36  50 E3        30.06S
FAIRFIELD*     FAIR      53  36  52 CALM      30.06S
HARRISBURG*    FAIR      54  37  52 NE5       30.07R
ROBINSON*      FAIR      53  35  49 CALM      30.08R
CARMI*         FAIR      52  37  58 N5        30.07R
$$

ABBREVIATIONS USED IN REMARKS
   TC - TEMPERATURE IN CELSIUS
  WCI - WIND CHILL INDEX
   HX - HEAT INDEX
  VSB - VISIBILITY
$$




USA.gov is the U.S. government's official web portal to all federal, state and local government web resources and services.